DECAYED

STARLINK-2229, 47992 (Decayed)

Orbit data source: Space-Track

STARLINK-2229, 47992 was a payload satellite owned by SpaceX/Seattle (US) in LEO that was launched on Wed, 24 Mar 2021 UTC via an FALCON 9 launch vehicle from the Air Force Eastern Test Range (AFETR). Payload-class satellites include a variety of spacecraft equipped with specific instruments for various scientific and technological missions. These include communications satellites like Starlink; space stations such as the ISS; scientific satellites like the Hubble; Earth observation satellites from companies like Planet Labs, Umbra, and HawkEye 360; GPS; miniature CubeSats for education and research; and military/defense satellites.

Not visible in the next 10 days
Identifier
47992, 2021-024R
Orbit
Decayed
Country
Flag of USUS
Related business
Manufacturer
SpaceX/Seattle
Mission
Decayed Commercial Communications
Bus & Motor
STARLINK, Unknown motor
Mass
260 kg wet, ~248 kg dry
Launch date (UTC)
2021-03-24 (5 years ago)
Launch vehicle
FALCON 9
Launch site
Air Force Eastern Test Range (AFETR)
Object type
Payload
Rocket body
Debris
Shape & HBR
Box + 1 Pan, 10.1 m
Radar Cross Section
13.562 m², Large (>1 m²)

Expand to show TLE details & history
Last TLE update: 1 year ago

TLE from 1 year ago
0 STARLINK-2229
1 47992U 21024R   25056.12649616  .29029499  12641-4  34720-3 0  9994
2 47992  53.0174 109.8274 0000203  75.1219  22.0479 16.49971129218828
Epoch: 2025-02-25T03:02Z
TLE epoch observation values (Epoch: 2025-02-25T03:02:09.268Z)
Latitude
52.58519°
Longitude
10.8798°
Altitude
145.624 km
Speed
7.825 km/s
True Right ascension
14h 06m 36s
True Declination
52° 24' 12"
Sunlit
Object was in full shadow at epoch
Visualization orbit readout
Latitude
Unknown
Longitude
Unknown
Altitude
Unknown
Speed
Unknown
Apparent Right ascension
Unknown
Apparent Declination
Unknown
Sunlit
N/A
Visualization observer readout
Local Sidereal Time
21:35:16
Azimuth
Unknown
Elevation
Unknown
Doppler factor
Unknown
Orbital elements
Apogee altitude
139.837 km
Perigee altitude
139.573 km
Semi-major axis
6,517.842 km
Eccentricity
0.00002
Inclination
53.0174°
RAAN
109.8274°
Arg. of periapsis
75.1219°
True anomaly
22.04877°
Mean anomaly
22.0479°
Eccentric anomaly
22.04834°
Mean motion
4.12465 °/min
Orbital period
87.28 mins
BSTAR
0.0003472
Loading maneuver chart data...
Computing Atmospheric mass density...

Documentation

Showing up to 5 results
|